Retour au catalogue

SL-16 DEB

ActifLEO
NORAD 19127·DEBRIS·🇷🇺 Russia

Lancé May 15, 1988 depuis Baikonur Cosmodrome

Loading…

Prochains Passages (prochaines 24 heures)

TLE

FraisSource: Space-Track

Époque: Sep 14, 2026, 05:19 UTC

1 19127U 88039E   26257.22184403  .00000042  00000-0  78074-4 0  9990
2 19127  70.9878  63.9825 0206248 103.7989  67.9363 13.72810700918936

Suivez SL-16 DEB en temps réel avec AllMySat

Download on the App Store